Location: Erdweis
(48.5167°N, 15.3500°E)
Time: 13:57:40
(UTC+00:00)

NOSS 2-2 (C) - Pass Details

Date: 19 January 2021
Orbit: 463 x 1745 km, 63.3° (Epoch: 03 March)

Event Time Altitude Azimuth Distance (km) Brightness Sun altitude
Rises 18:39:46 0° 320° (NW) 2,868 7.6 -29.8°
Reaches altitude 10° 18:42:12 10° 335° (NNW) 2,111 6.6 -30.2°
Enters shadow 18:43:25 16° 348° (NNW) 1,826 6.1 -30.4°
